| time (UTC) | temp F | wind direction | speed knots | gust knots | rain 1hr in | rain 24hr in | rain mn in | humidity % | barometer mb |
| 20260508174123 | 73 | 53 | 2.6 | 5.2 | 0.00 | 0.00 | 0.00 | 68 | 1016.2 |
| 20260508173612 | 73 | 33 | 3.5 | 5.2 | 0.00 | 0.00 | 0.00 | 67 | 1016.1 |
| 20260508173108 | 73 | 60 | 2.6 | 6.1 | 0.00 | 0.00 | 0.00 | 68 | 1016.1 |
| 20260508172610 | 73 | 71 | 2.6 | 6.1 | 0.00 | 0.00 | 0.00 | 69 | 1016.2 |
| 20260508171607 | 73 | 58 | 2.6 | 4.3 | 0.00 | 0.00 | 0.00 | 69 | 1016.3 |
| 20260508171115 | 72 | 58 | 2.6 | 5.2 | 0.00 | 0.00 | 0.00 | 71 | 1016.4 |
| 20260508170608 | 72 | 51 | 1.7 | 5.2 | 0.00 | 0.00 | 0.00 | 68 | 1016.6 |
| 20260508165607 | 72 | 121 | 1.7 | 4.3 | 0.00 | 0.00 | 0.00 | 71 | 1016.8 |
| 20260508165106 | 72 | 65 | 1.7 | 5.2 | 0.00 | 0.00 | 0.00 | 70 | 1016.8 |
| 20260508164606 | 72 | 60 | 2.6 | 7.0 | 0.00 | 0.00 | 0.00 | 67 | 1016.8 |
| 20260508164102 | 72 | 71 | 2.6 | 7.0 | 0.00 | 0.00 | 0.00 | 69 | 1016.8 |
| 20260508163606 | 72 | 23 | 1.7 | 5.2 | 0.00 | 0.00 | 0.00 | 72 | 1016.8 |
| 20260508163105 | 72 | 34 | 2.6 | 6.1 | 0.00 | 0.00 | 0.00 | 71 | 1016.7 |
| 20260508162610 | 72 | 68 | 2.6 | 7.0 | 0.00 | 0.00 | 0.00 | 71 | 1016.9 |
| 20260508162104 | 72 | 87 | 2.6 | 7.0 | 0.00 | 0.00 | 0.00 | 72 | 1016.8 |
| 20260508161608 | 72 | 67 | 2.6 | 7.8 | 0.00 | 0.00 | 0.00 | 74 | 1016.8 |
| 20260508161105 | 71 | 47 | 4.3 | 7.8 | 0.00 | 0.00 | 0.00 | 75 | 1016.9 |
| 20260508160104 | 70 | 57 | 3.5 | 7.8 | 0.00 | 0.00 | 0.00 | 75 | 1017.1 |
| 20260508155607 | 70 | 63 | 3.5 | 8.7 | 0.00 | 0.00 | 0.00 | 76 | 1017.1 |
| 20260508154607 | 70 | 323 | 3.5 | 7.8 | 0.00 | 0.00 | 0.00 | 77 | 1017.2 |
| 20260508154103 | 69 | 54 | 3.5 | 7.8 | 0.00 | 0.00 | 0.00 | 76 | 1017.2 |
| 20260508153606 | 69 | 30 | 2.6 | 6.1 | 0.00 | 0.00 | 0.00 | 75 | 1017.2 |
| 20260508153102 | 69 | 68 | 1.7 | 6.1 | 0.00 | 0.00 | 0.00 | 75 | 1017.2 |
| 20260508152606 | 69 | 70 | 2.6 | 6.1 | 0.00 | 0.00 | 0.00 | 75 | 1017.3 |
| 20260508152104 | 69 | 70 | 3.5 | 7.0 | 0.00 | 0.00 | 0.00 | 75 | 1017.2 |
| 20260508151607 | 69 | 65 | 2.6 | 7.0 | 0.00 | 0.01 | 0.00 | 75 | 1017.3 |
| 20260508151106 | 69 | 19 | 3.5 | 7.0 | 0.00 | 0.01 | 0.00 | 74 | 1017.3 |
| 20260508150608 | 69 | 17 | 2.6 | 8.7 | 0.00 | 0.01 | 0.00 | 73 | 1017.2 |
| 20260508145605 | 69 | 51 | 2.6 | 5.2 | 0.00 | 0.02 | 0.00 | 74 | 1017.3 |
| 20260508145102 | 69 | 61 | 3.5 | 7.0 | 0.00 | 0.02 | 0.00 | 74 | 1017.2 |
| 20260508144605 | 68 | 50 | 3.5 | 7.0 | 0.00 | 0.03 | 0.00 | 74 | 1017.1 |
| 20260508144104 | 68 | 74 | 2.6 | 6.1 | 0.00 | 0.04 | 0.00 | 74 | 1017.2 |
| 20260508143605 | 68 | 28 | 2.6 | 5.2 | 0.00 | 0.05 | 0.00 | 74 | 1017.4 |
| 20260508143103 | 68 | 13 | 1.7 | 4.3 | 0.00 | 0.06 | 0.00 | 73 | 1017.4 |
| 20260508142606 | 68 | 67 | 1.7 | 5.2 | 0.00 | 0.09 | 0.00 | 74 | 1017.4 |
| 20260508142105 | 68 | 68 | 2.6 | 6.1 | 0.00 | 0.11 | 0.00 | 74 | 1017.3 |
| 20260508141555 | 68 | 15 | 3.5 | 7.8 | 0.00 | 0.13 | 0.00 | 74 | 1017.5 |
| 20260508141052 | 68 | 50 | 3.5 | 7.8 | 0.00 | 0.15 | 0.00 | 74 | 1017.5 |
| 20260508140042 | 67 | 24 | 3.5 | 7.0 | 0.00 | 0.17 | 0.00 | 75 | 1017.1 |
| 20260508135542 | 67 | 27 | 2.6 | 7.0 | 0.00 | 0.17 | 0.00 | 75 | 1017.1 |
| 20260508134541 | 67 | 351 | 2.6 | 4.3 | 0.00 | 0.17 | 0.00 | 75 | 1017.3 |
| 20260508134043 | 67 | 2 | 2.6 | 6.1 | 0.00 | 0.17 | 0.00 | 76 | 1017.3 |
| 20260508133537 | 66 | 10 | 1.7 | 7.0 | 0.00 | 0.18 | 0.00 | 76 | 1017.1 |
| 20260508133035 | 66 | 346 | 1.7 | 7.0 | 0.00 | 0.18 | 0.00 | 76 | 1017.0 |
| 20260508132537 | 66 | 45 | 2.6 | 8.7 | 0.00 | 0.18 | 0.00 | 76 | 1017.0 |
| 20260508132036 | 66 | 51 | 3.5 | 8.7 | 0.00 | 0.18 | 0.00 | 75 | 1016.8 |
| 20260508131536 | 66 | 356 | 3.5 | 6.1 | 0.00 | 0.18 | 0.00 | 76 | 1016.8 |
| 20260508131035 | 66 | 0 | 2.6 | 6.1 | 0.00 | 0.19 | 0.00 | 75 | 1016.9 |
| 20260508130037 | 66 | 17 | 2.6 | 5.2 | 0.00 | 0.21 | 0.00 | 75 | 1016.8 |
| 20260508125534 | 66 | 33 | 1.7 | 5.2 | 0.00 | 0.22 | 0.00 | 75 | 1016.8 |
| 20260508123528 | 66 | 20 | 4.3 | 9.6 | 0.00 | 0.27 | 0.00 | 77 | 1016.4 |
| 20260508123029 | 66 | 331 | 3.5 | 9.6 | 0.00 | 0.29 | 0.00 | 77 | 1016.6 |
| 20260508122535 | 66 | 351 | 2.6 | 7.0 | 0.00 | 0.30 | 0.00 | 77 | 1016.7 |
| 20260508121024 | 66 | 3 | 1.7 | 3.5 | 0.00 | 0.33 | 0.00 | 78 | 1016.0 |
| 20260508120526 | 66 | 3 | 1.7 | 4.3 | 0.00 | 0.33 | 0.00 | 78 | 1016.0 |
| 20260508120025 | 66 | 356 | 1.7 | 5.2 | 0.00 | 0.33 | 0.00 | 77 | 1016.1 |
| 20260508115523 | 66 | 351 | 1.7 | 5.2 | 0.00 | 0.33 | 0.00 | 78 | 1016.2 |
| 20260508115022 | 66 | 356 | 1.7 | 4.3 | 0.00 | 0.33 | 0.00 | 78 | 1016.1 |
| 20260508114033 | 66 | 356 | 1.7 | 3.5 | 0.00 | 0.33 | 0.00 | 78 | 1015.9 |
| 20260508113536 | 65 | 5 | 1.7 | 3.5 | 0.00 | 0.33 | 0.00 | 78 | 1015.9 |
| 20260508113028 | 65 | 5 | 0.9 | 3.5 | 0.00 | 0.33 | 0.00 | 78 | 1015.9 |
| 20260508112519 | 65 | 20 | 0.9 | 2.6 | 0.00 | 0.33 | 0.00 | 77 | 1015.9 |
| 20260508112021 | 65 | 20 | 1.7 | 2.6 | 0.00 | 0.33 | 0.00 | 77 | 1015.7 |
| 20260508111017 | 65 | 20 | 0.9 | 3.5 | 0.00 | 0.33 | 0.00 | 76 | 1015.4 |
| 20260508110515 | 65 | 20 | 0.9 | 3.5 | 0.00 | 0.33 | 0.00 | 76 | 1015.2 |
| 20260508110016 | 65 | 20 | 1.7 | 3.5 | 0.00 | 0.33 | 0.00 | 77 | 1015.3 |
| 20260508105517 | 65 | 20 | 1.7 | 2.6 | 0.00 | 0.33 | 0.00 | 78 | 1015.3 |
| 20260508105014 | 65 | 20 | 1.7 | 5.2 | 0.00 | 0.33 | 0.00 | 78 | 1015.2 |
| 20260508104513 | 65 | 21 | 0.9 | 5.2 | 0.00 | 0.33 | 0.00 | 78 | 1015.0 |
| 20260508104022 | 65 | 40 | 0.9 | 1.7 | 0.00 | 0.33 | 0.00 | 79 | 1014.9 |
| 20260508103519 | 65 | 40 | 0.9 | 2.6 | 0.00 | 0.33 | 0.00 | 78 | 1015.0 |
| 20260508102504 | 65 | 40 | 0.9 | 3.5 | 0.00 | 0.33 | 0.00 | 80 | 1014.7 |
| 20260508101958 | 65 | 40 | 0.9 | 3.5 | 0.00 | 0.33 | 0.00 | 80 | 1014.8 |
| 20260508101453 | 66 | 40 | 0.0 | 1.7 | 0.00 | 0.33 | 0.00 | 80 | 1014.9 |
| 20260508100455 | 66 | 40 | 0.0 | 1.7 | 0.00 | 0.33 | 0.00 | 78 | 1014.7 |
| 20260508095951 | 66 | 40 | 0.0 | 1.7 | 0.00 | 0.33 | 0.00 | 77 | 1014.6 |
| 20260508095449 | 66 | 40 | 0.0 | 1.7 | 0.00 | 0.33 | 0.00 | 77 | 1014.5 |
| 20260508094442 | 67 | 40 | 0.9 | 2.6 | 0.00 | 0.33 | 0.00 | 75 | 1014.4 |
| 20260508093940 | 67 | 40 | 0.9 | 3.5 | 0.00 | 0.33 | 0.00 | 75 | 1014.3 |
| 20260508093440 | 67 | 40 | 1.7 | 3.5 | 0.00 | 0.33 | 0.00 | 75 | 1014.3 |
| 20260508092935 | 67 | 40 | 0.9 | 2.6 | 0.00 | 0.33 | 0.00 | 75 | 1014.4 |
| 20260508092435 | 67 | 40 | 0.9 | 2.6 | 0.00 | 0.33 | 0.00 | 75 | 1014.4 |
| 20260508091936 | 67 | 40 | 1.7 | 3.5 | 0.00 | 0.33 | 0.00 | 75 | 1014.4 |
| 20260508091436 | 67 | 40 | 1.7 | 3.5 | 0.00 | 0.33 | 0.00 | 75 | 1014.2 |
| 20260508090934 | 67 | 40 | 1.7 | 2.6 | 0.00 | 0.33 | 0.00 | 75 | 1014.2 |
| 20260508090439 | 67 | 40 | 0.9 | 2.6 | 0.00 | 0.33 | 0.00 | 74 | 1014.1 |
| 20260508085936 | 67 | 40 | 0.9 | 3.5 | 0.00 | 0.33 | 0.00 | 75 | 1014.3 |
| 20260508085433 | 68 | 40 | 0.9 | 3.5 | 0.00 | 0.33 | 0.00 | 74 | 1014.3 |
| 20260508084435 | 68 | 40 | 1.7 | 4.3 | 0.00 | 0.33 | 0.00 | 74 | 1014.1 |
| 20260508083933 | 68 | 346 | 1.7 | 3.5 | 0.00 | 0.33 | 0.00 | 75 | 1014.0 |
| 20260508082930 | 68 | 346 | 1.7 | 4.3 | 0.00 | 0.33 | 0.00 | 75 | 1014.1 |
| 20260508082430 | 68 | 346 | 2.6 | 4.3 | 0.00 | 0.33 | 0.00 | 76 | 1014.1 |
| 20260508081930 | 68 | 336 | 2.6 | 7.0 | 0.00 | 0.33 | 0.00 | 76 | 1014.2 |
| 20260508081427 | 68 | 351 | 2.6 | 7.0 | 0.00 | 0.33 | 0.00 | 77 | 1014.1 |
| 20260508080927 | 68 | 30 | 2.6 | 5.2 | 0.00 | 0.33 | 0.00 | 78 | 1013.7 |
| 20260508080429 | 68 | 13 | 2.6 | 5.2 | 0.00 | 0.33 | 0.00 | 78 | 1014.0 |
| 20260508075927 | 68 | 1 | 2.6 | 6.1 | 0.00 | 0.33 | 0.00 | 79 | 1013.9 |
| 20260508074926 | 68 | 25 | 1.7 | 3.5 | 0.00 | 0.33 | 0.00 | 81 | 1014.1 |
| 20260508074430 | 68 | 25 | 2.6 | 7.0 | 0.00 | 0.33 | 0.00 | 81 | 1013.9 |
| 20260508073928 | 69 | 18 | 2.6 | 7.0 | 0.00 | 0.33 | 0.00 | 81 | 1014.1 |
| 20260508073424 | 69 | 20 | 2.6 | 7.0 | 0.00 | 0.33 | 0.00 | 81 | 1014.2 |
| 20260508072421 | 69 | 0 | 1.7 | 4.3 | 0.00 | 0.33 | 0.00 | 81 | 1014.0 |
| 20260508071925 | 69 | 8 | 2.6 | 4.3 | 0.00 | 0.33 | 0.00 | 81 | 1013.9 |
| 20260508070422 | 70 | 341 | 2.6 | 7.0 | 0.00 | 0.33 | 0.00 | 80 | 1014.2 |
| 20260508065921 | 70 | 318 | 3.5 | 8.7 | 0.00 | 0.33 | 0.00 | 80 | 1014.2 |
| 20260508065419 | 70 | 356 | 4.3 | 9.6 | 0.00 | 0.33 | 0.00 | 80 | 1014.0 |
| 20260508064420 | 71 | 336 | 4.3 | 10.4 | 0.00 | 0.33 | 0.00 | 80 | 1014.1 |
| 20260508063919 | 71 | 326 | 5.2 | 10.4 | 0.00 | 0.33 | 0.00 | 81 | 1014.1 |
| 20260508063419 | 71 | 4 | 6.1 | 11.3 | 0.00 | 0.33 | 0.00 | 82 | 1014.1 |
| 20260508062417 | 72 | 4 | 7.8 | 12.2 | 0.00 | 0.33 | 0.00 | 84 | 1014.1 |
| 20260508061917 | 72 | 11 | 7.0 | 12.2 | 0.00 | 0.33 | 0.00 | 87 | 1014.1 |
| 20260508061419 | 72 | 356 | 5.2 | 12.2 | 0.00 | 0.33 | 0.00 | 89 | 1014.1 |
| 20260508060917 | 73 | 0 | 4.3 | 11.3 | 0.00 | 0.33 | 0.00 | 90 | 1014.1 |
| 20260508060418 | 73 | 9 | 4.3 | 7.8 | 0.00 | 0.33 | 0.00 | 90 | 1014.1 |
| 20260508055918 | 73 | 330 | 5.2 | 10.4 | 0.00 | 0.33 | 0.00 | 91 | 1014.1 |
| 20260508055419 | 73 | 320 | 4.3 | 10.4 | 0.00 | 0.33 | 0.00 | 91 | 1014.2 |
| 20260508054921 | 73 | 306 | 2.6 | 7.0 | 0.00 | 0.33 | 0.00 | 91 | 1014.0 |
| 20260508053919 | 73 | 296 | 2.6 | 7.8 | 0.00 | 0.33 | 0.00 | 92 | 1014.1 |
| 20260508053419 | 73 | 265 | 2.6 | 7.0 | 0.00 | 0.33 | 0.00 | 92 | 1014.2 |
| 20260508052931 | 73 | 256 | 1.7 | 3.5 | 0.00 | 0.33 | 0.00 | 92 | 1014.1 |
| 20260508052418 | 73 | 256 | 1.7 | 3.5 | 0.00 | 0.33 | 0.00 | 92 | 1013.9 |
| 20260508051917 | 73 | 256 | 1.7 | 3.5 | 0.00 | 0.33 | 0.00 | 92 | 1013.8 |
| 20260508051418 | 73 | 248 | 1.7 | 3.5 | 0.00 | 0.33 | 0.00 | 92 | 1013.8 |
| 20260508050918 | 73 | 247 | 0.9 | 2.6 | 0.00 | 0.33 | 0.00 | 92 | 1013.7 |
| 20260508050418 | 73 | 247 | 0.9 | 2.6 | 0.00 | 0.33 | 0.00 | 91 | 1013.7 |
| 20260508045416 | 73 | 247 | 0.9 | 3.5 | 0.00 | 0.33 | 0.00 | 91 | 1013.5 |
| 20260508044917 | 73 | 247 | 1.7 | 3.5 | 0.00 | 0.33 | 0.00 | 91 | 1013.6 |
| 20260508043416 | 73 | 241 | 0.9 | 2.6 | 0.00 | 0.33 | 0.00 | 90 | 1013.6 |
| 20260508042914 | 73 | 240 | 0.9 | 2.6 | 0.00 | 0.33 | 0.00 | 90 | 1013.4 |
| 20260508041910 | 74 | 240 | 1.7 | 4.3 | 0.00 | 0.33 | 0.00 | 90 | 1013.6 |
| 20260508041410 | 74 | 241 | 1.7 | 2.6 | 0.00 | 0.33 | 0.00 | 90 | 1013.6 |
| 20260508040908 | 74 | 241 | 1.7 | 2.6 | 0.00 | 0.33 | 0.00 | 90 | 1013.7 |
| 20260508040410 | 74 | 241 | 1.7 | 2.6 | 0.00 | 0.33 | 0.00 | 89 | 1013.6 |
| 20260508035911 | 74 | 241 | 1.7 | 2.6 | 0.00 | 0.33 | 0.33 | 89 | 1013.5 |
| 20260508034909 | 74 | 241 | 0.9 | 3.5 | 0.00 | 0.33 | 0.33 | 89 | 1013.3 |
| 20260508034412 | 74 | 241 | 1.7 | 3.5 | 0.00 | 0.33 | 0.33 | 89 | 1013.3 |
| 20260508032910 | 74 | 241 | 1.7 | 4.3 | 0.00 | 0.33 | 0.33 | 89 | 1013.7 |
| 20260508032414 | 74 | 241 | 1.7 | 4.3 | 0.00 | 0.33 | 0.33 | 89 | 1013.7 |
| 20260508031910 | 74 | 253 | 1.7 | 2.6 | 0.00 | 0.33 | 0.33 | 89 | 1013.7 |
| 20260508031407 | 74 | 254 | 0.9 | 2.6 | 0.00 | 0.33 | 0.33 | 88 | 1013.6 |
| 20260508030905 | 74 | 254 | 1.7 | 6.1 | 0.00 | 0.33 | 0.33 | 88 | 1013.6 |
| 20260508030403 | 74 | 254 | 1.7 | 6.1 | 0.00 | 0.33 | 0.33 | 88 | 1013.6 |
| 20260508024904 | 74 | 220 | 1.7 | 3.5 | 0.00 | 0.33 | 0.33 | 88 | 1013.6 |
| 20260508024358 | 74 | 219 | 1.7 | 4.3 | 0.00 | 0.33 | 0.33 | 88 | 1013.5 |
| 20260508023855 | 74 | 217 | 1.7 | 4.3 | 0.00 | 0.33 | 0.33 | 88 | 1013.4 |
| 20260508023355 | 74 | 218 | 1.7 | 3.5 | 0.00 | 0.33 | 0.33 | 88 | 1013.3 |
| 20260508022857 | 74 | 218 | 1.7 | 3.5 | 0.00 | 0.33 | 0.33 | 88 | 1013.2 |
| 20260508022356 | 74 | 219 | 1.7 | 3.5 | 0.00 | 0.33 | 0.33 | 87 | 1013.1 |
| 20260508021857 | 74 | 219 | 1.7 | 3.5 | 0.00 | 0.33 | 0.33 | 87 | 1013.0 |
| 20260508015857 | 75 | 227 | 1.7 | 6.1 | 0.00 | 0.33 | 0.33 | 87 | 1012.7 |
| 20260508015355 | 75 | 225 | 1.7 | 4.3 | 0.00 | 0.33 | 0.33 | 86 | 1012.7 |
| 20260508014856 | 75 | 225 | 1.7 | 4.3 | 0.00 | 0.33 | 0.33 | 86 | 1012.7 |
| 20260508013855 | 75 | 230 | 1.7 | 4.3 | 0.00 | 0.33 | 0.33 | 86 | 1012.6 |
| 20260508012349 | 75 | 242 | 0.9 | 1.7 | 0.00 | 0.33 | 0.33 | 86 | 1012.5 |
| 20260508011850 | 76 | 242 | 0.9 | 1.7 | 0.00 | 0.33 | 0.33 | 86 | 1012.5 |
| 20260508011349 | 76 | 242 | 0.9 | 1.7 | 0.00 | 0.33 | 0.33 | 85 | 1012.4 |
| 20260508010850 | 76 | 242 | 0.9 | 1.7 | 0.00 | 0.33 | 0.33 | 85 | 1012.2 |
| 20260508010350 | 76 | 242 | 0.9 | 2.6 | 0.00 | 0.33 | 0.33 | 84 | 1012.3 |
| 20260508005845 | 76 | 242 | 0.9 | 2.6 | 0.00 | 0.33 | 0.33 | 84 | 1012.2 |
| 20260508005346 | 76 | 242 | 0.9 | 2.6 | 0.00 | 0.33 | 0.33 | 84 | 1012.1 |
| 20260508004845 | 76 | 242 | 1.7 | 2.6 | 0.00 | 0.33 | 0.33 | 83 | 1012.2 |
| 20260508004346 | 77 | 242 | 0.9 | 2.6 | 0.00 | 0.33 | 0.33 | 83 | 1012.1 |
| 20260508003346 | 77 | 242 | 0.9 | 2.6 | 0.00 | 0.33 | 0.33 | 82 | 1012.0 |
| 20260508002845 | 77 | 242 | 1.7 | 3.5 | 0.00 | 0.33 | 0.33 | 82 | 1012.0 |
| 20260508002347 | 77 | 252 | 1.7 | 5.2 | 0.00 | 0.33 | 0.33 | 81 | 1012.0 |
| 20260508001845 | 78 | 253 | 2.6 | 7.0 | 0.00 | 0.33 | 0.33 | 81 | 1012.0 |
| 20260508001344 | 78 | 232 | 3.5 | 7.0 | 0.00 | 0.33 | 0.33 | 81 | 1012.0 |
| 20260508000845 | 78 | 248 | 3.5 | 7.0 | 0.00 | 0.33 | 0.33 | 80 | 1012.0 |
| 20260508000345 | 78 | 252 | 3.5 | 7.0 | 0.00 | 0.33 | 0.33 | 80 | 1012.0 |
| 20260507235847 | 78 | 235 | 3.5 | 8.7 | 0.00 | 0.33 | 0.33 | 79 | 1012.0 |
| 20260507235348 | 78 | 232 | 4.3 | 9.6 | 0.00 | 0.33 | 0.33 | 79 | 1012.0 |
| 20260507234848 | 79 | 230 | 5.2 | 13.9 | 0.00 | 0.33 | 0.33 | 78 | 1012.1 |
| 20260507232843 | 79 | 256 | 6.1 | 15.6 | 0.00 | 0.33 | 0.33 | 77 | 1011.9 |
| 20260507232343 | 79 | 239 | 6.1 | 15.6 | 0.00 | 0.33 | 0.33 | 77 | 1012.1 |
| 20260507231840 | 79 | 227 | 6.1 | 14.8 | 0.00 | 0.33 | 0.33 | 77 | 1012.0 |
| 20260507230846 | 80 | 223 | 6.1 | 12.2 | 0.00 | 0.33 | 0.33 | 77 | 1012.0 |
| 20260507230339 | 80 | 255 | 6.1 | 12.2 | 0.00 | 0.33 | 0.33 | 77 | 1012.0 |
| 20260507225839 | 80 | 244 | 7.0 | 15.6 | 0.00 | 0.33 | 0.33 | 76 | 1011.8 |
| 20260507225346 | 80 | 233 | 7.0 | 15.6 | 0.00 | 0.33 | 0.33 | 76 | 1011.7 |
| 20260507224845 | 80 | 259 | 6.1 | 13.0 | 0.00 | 0.33 | 0.33 | 76 | 1011.7 |
| 20260507224341 | 80 | 239 | 6.1 | 13.0 | 0.00 | 0.33 | 0.33 | 76 | 1011.8 |
| 20260507223837 | 80 | 206 | 6.1 | 13.0 | 0.00 | 0.33 | 0.33 | 76 | 1011.7 |
| 20260507223335 | 80 | 264 | 5.2 | 13.0 | 0.00 | 0.33 | 0.33 | 76 | 1011.7 |
| 20260507222837 | 80 | 222 | 5.2 | 13.0 | 0.00 | 0.33 | 0.33 | 76 | 1011.6 |
| 20260507222336 | 80 | 229 | 5.2 | 15.6 | 0.00 | 0.33 | 0.33 | 76 | 1011.6 |
| 20260507221833 | 80 | 214 | 6.1 | 15.6 | 0.00 | 0.33 | 0.33 | 76 | 1011.8 |
| 20260507220829 | 80 | 270 | 6.1 | 13.0 | 0.00 | 0.33 | 0.33 | 75 | 1011.8 |
| 20260507220333 | 80 | 242 | 7.0 | 15.6 | 0.00 | 0.33 | 0.33 | 76 | 1011.8 |
| 20260507215833 | 80 | 200 | 7.8 | 17.4 | 0.00 | 0.33 | 0.33 | 75 | 1011.7 |
| 20260507215333 | 80 | 227 | 7.0 | 17.4 | 0.00 | 0.33 | 0.33 | 75 | 1011.8 |
| 20260507214835 | 80 | 223 | 5.2 | 14.8 | 0.00 | 0.33 | 0.33 | 75 | 1011.8 |
| 20260507214331 | 80 | 281 | 7.0 | 14.8 | 0.00 | 0.33 | 0.33 | 75 | 1011.7 |
| 20260507213833 | 80 | 238 | 7.0 | 14.8 | 0.00 | 0.33 | 0.33 | 74 | 1011.7 |
| 20260507213329 | 80 | 223 | 6.1 | 14.8 | 0.00 | 0.33 | 0.33 | 74 | 1011.6 |
| 20260507212832 | 80 | 249 | 7.0 | 15.6 | 0.00 | 0.33 | 0.33 | 74 | 1011.5 |
| 20260507212333 | 80 | 228 | 7.0 | 15.6 | 0.00 | 0.33 | 0.33 | 74 | 1011.6 |
| 20260507211902 | 80 | 208 | 7.0 | 12.2 | 0.00 | 0.33 | 0.33 | 74 | 1011.6 |
| 20260507211340 | 80 | 279 | 7.8 | 17.4 | 0.00 | 0.33 | 0.33 | 74 | 1011.6 |
| 20260507210829 | 80 | 237 | 7.8 | 17.4 | 0.00 | 0.33 | 0.33 | 73 | 1011.5 |
| 20260507210349 | 80 | 204 | 7.0 | 16.5 | 0.00 | 0.33 | 0.33 | 73 | 1011.4 |
| 20260507205838 | 80 | 200 | 7.8 | 17.4 | 0.00 | 0.33 | 0.33 | 74 | 1011.5 |
| 20260507205342 | 79 | 239 | 8.7 | 17.4 | 0.00 | 0.33 | 0.33 | 73 | 1011.5 |
| 20260507204329 | 80 | 232 | 9.6 | 20.0 | 0.00 | 0.33 | 0.33 | 72 | 1011.6 |
| 20260507202837 | 81 | 247 | 7.8 | 13.9 | 0.00 | 0.33 | 0.33 | 72 | 1011.6 |
| 20260507202324 | 80 | 279 | 7.0 | 16.5 | 0.00 | 0.33 | 0.33 | 74 | 1011.6 |
| 20260507201819 | 80 | 248 | 7.0 | 16.5 | 0.00 | 0.33 | 0.33 | 74 | 1011.7 |
| 20260507201332 | 81 | 249 | 7.0 | 15.6 | 0.00 | 0.33 | 0.33 | 74 | 1011.6 |
| 20260507200304 | 79 | 221 | 7.0 | 16.5 | 0.00 | 0.33 | 0.33 | 77 | 1011.8 |
| 20260507195817 | 79 | 209 | 7.0 | 16.5 | 0.00 | 0.33 | 0.33 | 78 | 1012.0 |
| 20260507195305 | 79 | 250 | 7.8 | 19.1 | 0.00 | 0.33 | 0.33 | 78 | 1012.1 |
| 20260507194804 | 79 | 194 | 8.7 | 19.1 | 0.00 | 0.33 | 0.33 | 77 | 1012.1 |
| 20260507194308 | 79 | 200 | 8.7 | 18.2 | 0.00 | 0.33 | 0.33 | 77 | 1012.0 |
| 20260507193808 | 79 | 272 | 8.7 | 18.2 | 0.00 | 0.33 | 0.33 | 78 | 1011.9 |
| 20260507193311 | 78 | 221 | 7.8 | 18.2 | 0.00 | 0.33 | 0.33 | 77 | 1011.8 |
| 20260507192812 | 78 | 250 | 7.0 | 17.4 | 0.00 | 0.33 | 0.33 | 80 | 1011.8 |
| 20260507192307 | 77 | 233 | 7.8 | 17.4 | 0.00 | 0.33 | 0.33 | 81 | 1011.8 |
| 20260507191807 | 77 | 252 | 7.8 | 14.8 | 0.00 | 0.33 | 0.33 | 80 | 1011.9 |
| 20260507191305 | 77 | 256 | 7.0 | 14.8 | 0.00 | 0.33 | 0.33 | 81 | 1012.1 |
| 20260507190802 | 77 | 264 | 7.0 | 14.8 | 0.00 | 0.33 | 0.33 | 81 | 1012.2 |
| 20260507190303 | 77 | 231 | 7.0 | 13.9 | 0.00 | 0.33 | 0.33 | 81 | 1012.2 |
| 20260507185800 | 76 | 250 | 6.1 | 11.3 | 0.00 | 0.33 | 0.33 | 81 | 1012.2 |
| 20260507185300 | 76 | 196 | 6.1 | 11.3 | 0.00 | 0.33 | 0.33 | 82 | 1012.3 |
| 20260507184758 | 76 | 236 | 7.0 | 13.9 | 0.00 | 0.33 | 0.33 | 82 | 1012.2 |
| 20260507184258 | 76 | 212 | 7.8 | 16.5 | 0.00 | 0.33 | 0.33 | 82 | 1012.4 |
| 20260507183800 | 76 | 225 | 8.7 | 18.2 | 0.00 | 0.33 | 0.33 | 82 | 1012.4 |
| 20260507183259 | 76 | 234 | 7.8 | 18.2 | 0.00 | 0.33 | 0.33 | 83 | 1012.5 |
| 20260507182258 | 76 | 206 | 6.1 | 13.0 | 0.00 | 0.33 | 0.33 | 82 | 1012.4 |
| 20260507181758 | 76 | 214 | 7.0 | 15.6 | 0.00 | 0.33 | 0.33 | 83 | 1012.6 |
| 20260507181258 | 76 | 213 | 7.0 | 15.6 | 0.00 | 0.33 | 0.33 | 82 | 1012.6 |
| 20260507180258 | 76 | 242 | 6.1 | 13.0 | 0.00 | 0.33 | 0.33 | 83 | 1012.5 |
| 20260507175801 | 76 | 224 | 5.2 | 15.6 | 0.00 | 0.33 | 0.33 | 83 | 1012.6 |
| 20260507175259 | 76 | 223 | 6.1 | 15.6 | 0.00 | 0.33 | 0.33 | 83 | 1012.5 |
| 20260507174754 | 76 | 196 | 7.0 | 14.8 | 0.00 | 0.33 | 0.33 | 84 | 1012.6 |